Location: Newark
(5.5500°N, 0.2500°W)
Time: 12:13:57
(UTC+00:00)

Hubble Space Telescope - Pass Details

Date: 23 September 2019
Orbit: 536 x 540 km, 28.5° (Epoch: 19 October)

Event Time Altitude Azimuth Distance (km) Brightness Sun altitude
Rises 19:20:27 0° 233° (SW) 2,670 5.1 -21.7°
Reaches altitude 10° 19:22:44 10° 229° (SW) 1,778 4.0 -22.3°
Enters shadow 19:26:09 50° 187° (S) 682 1.2 -23.1°
